Location: *
(48.8489°N, 2.3218°E)
Time: 20:32:10
(UTC+00:00)

Cosmos 1743 - Pass Details

Date: 23 August 2019
Orbit: 511 x 527 km, 82.6° (Epoch: 22 October)

Event Time Altitude Azimuth Distance (km) Brightness Sun altitude
Exits shadow 21:37:56 73° 14° (NNE) 542 2.7 -22.9°
Drops below altitude 10° 21:41:25 10° 10° (N) 1,748 5.9 -23.2°
Sets 21:43:34 0° 10° (N) 2,642 7.0 -23.4°
